,,,PA_Meas_PMT16A,,PR_Meas_QMR101_102,,RH_Meas_QMH101,,SR_Meas_QMS101,,TA_Meas_QMH101,,GenWind,,GenWind,
date,time,status,PA,status,PR,status,RH,status,SR,status,TA,status,DirAvg,status,SpdAvg,
2012-05-08, 00:00:05,VALID,999.738,VALID,0,VALID,93.8062,VALID,0,VALID,23.9354,VALID,47,VALID,0.783594,
2012-05-08, 00:01:05,VALID,999.717,VALID,0,VALID,93.8596,VALID,0,VALID,23.914,VALID,47,VALID,0.708984,
2012-05-08, 00:02:05,VALID,999.701,VALID,0,VALID,93.913,VALID,0,VALID,23.9354,VALID,47,VALID,0.584766,
2012-05-08, 00:03:05,VALID,999.716,VALID,0,VALID,93.913,VALID,0,VALID,23.9354,VALID,47,VALID,0.394531,
2012-05-08, 00:04:05,VALID,999.7,VALID,0,VALID,93.9435,VALID,0,VALID,23.8945,VALID,47,VALID,0.178906,
2012-05-08, 00:05:05,VALID,999.687,VALID,0,VALID,93.9206,VALID,0,VALID,23.875,VALID,47,VALID,0.244531,
2012-05-08, 00:06:05,VALID,999.689,VALID,0,VALID,93.9359,VALID,0,VALID,23.8768,VALID,47,VALID,0.285937,
2012-05-08, 00:07:05,VALID,999.673,VALID,0,VALID,94.0122,VALID,0,VALID,23.8768,VALID,47,VALID,0.3625,
2012-05-08, 00:08:05,VALID,999.672,VALID,0,VALID,94.0732,VALID,0,VALID,23.8555,VALID,47,VALID,0.422266,
2012-05-08, 00:09:05,VALID,999.661,VALID,0,VALID,94.1648,VALID,0,VALID,23.875,VALID,47,VALID,0.403906,
2012-05-08, 00:10:05,VALID,999.698,VALID,0,VALID,94.1724,VALID,0,VALID,23.9159,VALID,47,VALID,0.386328,
2012-05-08, 00:11:05,VALID,999.664,VALID,0,VALID,94.18,VALID,0,VALID,23.9159,VALID,47,VALID,0.208984,
2012-05-08, 00:12:05,VALID,999.636,VALID,0,VALID,94.1648,VALID,0,VALID,23.8963,VALID,47,VALID,0.00117188,
2012-05-08, 00:13:05,VALID,999.617,VALID,0,VALID,94.1648,VALID,0,VALID,23.8963,VALID,47,VALID,0.253516,
2012-05-08, 00:14:05,VALID,999.634,VALID,0,VALID,94.1571,VALID,0,VALID,23.9159,VALID,47,VALID,0.411328,
2012-05-08, 00:15:05,VALID,999.619,VALID,0,VALID,94.2182,VALID,0,VALID,23.9159,VALID,47,VALID,0.152734,
2012-05-08, 00:16:05,VALID,999.597,VALID,0,VALID,94.2182,VALID,0,VALID,23.9354,VALID,47,VALID,0.13125,
2012-05-08, 00:17:05,VALID,999.573,VALID,0,VALID,94.1724,VALID,0,VALID,23.9336,VALID,47,VALID,0,
2012-05-08, 00:18:05,VALID,999.572,VALID,0,VALID,94.1419,VALID,0,VALID,23.914,VALID,47,VALID,0,
2012-05-08, 00:19:05,VALID,999.525,VALID,0,VALID,94.1037,VALID,0,VALID,23.914,VALID,47,VALID,0,
2012-05-08, 00:20:05,VALID,999.531,VALID,0,VALID,94.1114,VALID,0,VALID,23.9336,VALID,47,VALID,0,
2012-05-08, 00:21:05,VALID,999.561,VALID,0,VALID,94.1037,VALID,0,VALID,23.914,VALID,47,VALID,0,
2012-05-08, 00:22:05,VALID,999.535,VALID,0,VALID,94.0198,VALID,0,VALID,23.9159,VALID,47,VALID,0,
2012-05-08, 00:23:05,VALID,999.537,VALID,0,VALID,93.8443,VALID,0,VALID,23.8555,VALID,44,VALID,0.683203,
2012-05-08, 00:24:05,VALID,999.543,VALID,0,VALID,93.7985,VALID,0,VALID,23.8378,VALID,22,VALID,0.824609,
2012-05-08, 00:25:05,VALID,999.51,VALID,0,VALID,93.9283,VALID,0,VALID,23.797,VALID,22,VALID,0.955859,
2012-05-08, 00:26:05,VALID,999.506,VALID,0,VALID,94.058,VALID,0,VALID,23.7988,VALID,22,VALID,0.993359,
2012-05-08, 00:27:05,VALID,999.484,VALID,0,VALID,94.0503,VALID,0,VALID,23.7793,VALID,22,VALID,0.924609,
2012-05-08, 00:28:05,VALID,999.485,VALID,0,VALID,94.0885,VALID,0,VALID,23.7988,VALID,24,VALID,0.977734,
2012-05-08, 00:29:05,VALID,999.489,VALID,0,VALID,94.1877,VALID,0,VALID,23.7793,VALID,37,VALID,0.863672,
2012-05-08, 00:30:05,VALID,999.464,VALID,0,VALID,94.2487,VALID,0,VALID,23.797,VALID,37,VALID,0.548437,
2012-05-08, 00:31:05,VALID,999.484,VALID,0,VALID,94.264,VALID,0,VALID,23.8183,VALID,37,VALID,0.659375,
2012-05-08, 00:32:05,VALID,999.448,VALID,0,VALID,94.2105,VALID,0,VALID,23.8183,VALID,29,VALID,0.919531,
2012-05-08, 00:33:05,VALID,999.435,VALID,0,VALID,94.1877,VALID,0,VALID,23.7775,VALID,24,VALID,0.887891,
2012-05-08, 00:34:05,VALID,999.432,VALID,0,VALID,94.1114,VALID,0,VALID,23.7988,VALID,24,VALID,0.878125,
2012-05-08, 00:35:05,VALID,999.433,VALID,0,VALID,94.0885,VALID,0,VALID,23.7597,VALID,24,VALID,0.684375,
2012-05-08, 00:36:04,VALID,999.42,VALID,0,VALID,94.0808,VALID,0,VALID,23.7384,VALID,24,VALID,0.55625,
2012-05-08, 00:37:04,VALID,999.428,VALID,0,VALID,94.0503,VALID,0,VALID,23.7189,VALID,24,VALID,0.476953,
2012-05-08, 00:38:04,VALID,999.431,VALID,0,VALID,94.0198,VALID,0,VALID,23.6994,VALID,24,VALID,0.435156,
2012-05-08, 00:39:04,VALID,999.411,VALID,0,VALID,94.0274,VALID,0,VALID,23.6817,VALID,24,VALID,0.439844,
2012-05-08, 00:40:04,VALID,999.408,VALID,0,VALID,94.1037,VALID,0,VALID,23.6604,VALID,24,VALID,0.485938,
2012-05-08, 00:41:04,VALID,999.4,VALID,0,VALID,94.2334,VALID,0,VALID,23.7012,VALID,24,VALID,0.398047,
2012-05-08, 00:42:04,VALID,999.409,VALID,0,VALID,94.2868,VALID,0,VALID,23.7207,VALID,24,VALID,0.325,
2012-05-08, 00:43:04,VALID,999.385,VALID,0,VALID,94.325,VALID,0,VALID,23.7207,VALID,24,VALID,0.186328,
2012-05-08, 00:44:04,VALID,999.37,VALID,0,VALID,94.2792,VALID,0,VALID,23.7012,VALID,24,VALID,0.01875,
2012-05-08, 00:45:04,VALID,999.335,VALID,0,VALID,94.2563,VALID,0,VALID,23.7012,VALID,24,VALID,0.00234375,
2012-05-08, 00:46:04,VALID,999.312,VALID,0,VALID,94.264,VALID,0,VALID,23.6799,VALID,24,VALID,0.347656,
2012-05-08, 00:47:04,VALID,999.292,VALID,0,VALID,94.2945,VALID,0,VALID,23.6799,VALID,24,VALID,0.526172,
2012-05-08, 00:48:04,VALID,999.313,VALID,0,VALID,94.3479,VALID,0,VALID,23.7207,VALID,24,VALID,0.535937,
2012-05-08, 00:49:04,VALID,999.283,VALID,0,VALID,94.3555,VALID,0,VALID,23.7012,VALID,48,VALID,0.865625,
2012-05-08, 00:50:04,VALID,999.286,VALID,0,VALID,94.3631,VALID,0,VALID,23.6817,VALID,49,VALID,0.757422,
2012-05-08, 00:51:04,VALID,999.295,VALID,0,VALID,94.3403,VALID,0,VALID,23.6817,VALID,49,VALID,0.710938,
2012-05-08, 00:52:04,VALID,999.311,VALID,0,VALID,94.3326,VALID,0,VALID,23.6799,VALID,49,VALID,0.908203,
2012-05-08, 00:53:04,VALID,999.248,VALID,0,VALID,94.2716,VALID,0,VALID,23.6817,VALID,49,VALID,0.839063,
2012-05-08, 00:54:04,VALID,999.279,VALID,0,VALID,94.2258,VALID,0,VALID,23.6622,VALID,49,VALID,0.972266,
2012-05-08, 00:55:04,VALID,999.254,VALID,0,VALID,94.2411,VALID,0,VALID,23.6622,VALID,51,VALID,0.937891,
2012-05-08, 00:56:04,VALID,999.24,VALID,0,VALID,94.264,VALID,0,VALID,23.6427,VALID,51,VALID,0.787109,
2012-05-08, 00:57:04,VALID,999.223,VALID,0,VALID,94.2563,VALID,0,VALID,23.6214,VALID,51,VALID,0.534375,
2012-05-08, 00:58:04,VALID,999.231,VALID,0,VALID,94.2487,VALID,0,VALID,23.6427,VALID,51,VALID,0.355859,
2012-05-08, 00:59:04,VALID,999.184,VALID,0,VALID,94.2411,VALID,0,VALID,23.6232,VALID,51,VALID,0.435547,
2012-05-08, 01:00:04,VALID,999.179,VALID,0,VALID,94.2563,VALID,0,VALID,23.6036,VALID,51,VALID,0.335156,
2012-05-08, 01:01:04,VALID,999.178,VALID,0,VALID,94.2716,VALID,0,VALID,23.6036,VALID,51,VALID,0.378125,
2012-05-08, 01:02:04,VALID,999.15,VALID,0,VALID,94.264,VALID,0,VALID,23.5823,VALID,51,VALID,0.240234,
2012-05-08, 01:03:04,VALID,999.173,VALID,0,VALID,94.264,VALID,0,VALID,23.5823,VALID,51,VALID,0,
2012-05-08, 01:04:04,VALID,999.194,VALID,0,VALID,94.2487,VALID,0,VALID,23.5841,VALID,51,VALID,0,
2012-05-08, 01:05:04,VALID,999.206,VALID,0,VALID,94.2029,VALID,0,VALID,23.5433,VALID,51,VALID,0,
2012-05-08, 01:06:04,VALID,999.218,VALID,0,VALID,94.1877,VALID,0,VALID,23.5238,VALID,51,VALID,0,
2012-05-08, 01:07:04,VALID,999.223,VALID,0,VALID,94.2182,VALID,0,VALID,23.5451,VALID,51,VALID,0,
2012-05-08, 01:08:04,VALID,999.195,VALID,0,VALID,94.2563,VALID,0,VALID,23.5238,VALID,51,VALID,0,
2012-05-08, 01:09:04,VALID,999.24,VALID,0,VALID,94.264,VALID,0,VALID,23.5451,VALID,51,VALID,0.009375,
2012-05-08, 01:10:04,VALID,999.221,VALID,0,VALID,94.3631,VALID,0,VALID,23.5433,VALID,51,VALID,0.357031,
2012-05-08, 01:11:04,VALID,999.206,VALID,0,VALID,94.4394,VALID,0,VALID,23.5433,VALID,51,VALID,0.34375,
2012-05-08, 01:12:04,VALID,999.182,VALID,0,VALID,94.5234,VALID,0,VALID,23.5841,VALID,51,VALID,0.254687,
2012-05-08, 01:13:04,VALID,999.193,VALID,0,VALID,94.5462,VALID,0,VALID,23.6019,VALID,51,VALID,0.219922,
2012-05-08, 01:14:04,VALID,999.195,VALID,0,VALID,94.5844,VALID,0,VALID,23.6214,VALID,51,VALID,0.108594,
2012-05-08, 01:15:04,VALID,999.177,VALID,0,VALID,94.5691,VALID,0,VALID,23.6409,VALID,51,VALID,0,
2012-05-08, 01:16:04,VALID,999.165,VALID,0,VALID,94.5539,VALID,0,VALID,23.6622,VALID,51,VALID,0,
2012-05-08, 01:17:04,VALID,999.182,VALID,0,VALID,94.5615,VALID,0,VALID,23.6817,VALID,51,VALID,0,
2012-05-08, 01:18:04,VALID,999.185,VALID,0,VALID,94.5844,VALID,0,VALID,23.6817,VALID,51,VALID,0,
2012-05-08, 01:19:04,VALID,999.163,VALID,0,VALID,94.6149,VALID,0,VALID,23.7012,VALID,51,VALID,0,
2012-05-08, 01:20:04,VALID,999.144,VALID,0,VALID,94.5844,VALID,0,VALID,23.7402,VALID,51,VALID,0.180859,
2012-05-08, 01:21:04,VALID,999.152,VALID,0,VALID,94.5691,VALID,0,VALID,23.7402,VALID,51,VALID,0,
2012-05-08, 01:22:04,VALID,999.134,VALID,0,VALID,94.5691,VALID,0,VALID,23.7597,VALID,51,VALID,0,
2012-05-08, 01:23:04,VALID,999.13,VALID,0,VALID,94.531,VALID,0,VALID,23.7189,VALID,51,VALID,0,
2012-05-08, 01:24:04,VALID,999.151,VALID,0,VALID,94.5005,VALID,0,VALID,23.7597,VALID,51,VALID,0,
2012-05-08, 01:25:04,VALID,999.138,VALID,0,VALID,94.4623,VALID,0,VALID,23.7597,VALID,51,VALID,0,
2012-05-08, 01:26:04,VALID,999.11,VALID,0,VALID,94.4471,VALID,0,VALID,23.7597,VALID,51,VALID,0,
2012-05-08, 01:27:04,VALID,999.134,VALID,0,VALID,94.4318,VALID,0,VALID,23.7793,VALID,51,VALID,0.457422,
2012-05-08, 01:28:04,VALID,999.1,VALID,0,VALID,94.4089,VALID,0,VALID,23.7793,VALID,51,VALID,0.299609,
2012-05-08, 01:29:04,VALID,999.096,VALID,0,VALID,94.3708,VALID,0,VALID,23.7384,VALID,51,VALID,0.334375,
2012-05-08, 01:30:04,VALID,999.094,VALID,0,VALID,94.3174,VALID,0,VALID,23.7384,VALID,51,VALID,0.330469,
2012-05-08, 01:31:04,VALID,999.051,VALID,0,VALID,94.2563,VALID,0,VALID,23.7207,VALID,51,VALID,0.456641,
2012-05-08, 01:32:04,VALID,999.037,VALID,0,VALID,94.2334,VALID,0,VALID,23.7207,VALID,51,VALID,0.433203,
2012-05-08, 01:33:04,VALID,999.019,VALID,0,VALID,94.2258,VALID,0,VALID,23.7207,VALID,51,VALID,0.289844,
2012-05-08, 01:34:04,VALID,998.99,VALID,0,VALID,94.1571,VALID,0,VALID,23.7012,VALID,51,VALID,0.046875,
2012-05-08, 01:35:04,VALID,998.985,VALID,0,VALID,94.1114,VALID,0,VALID,23.6622,VALID,51,VALID,0.00234375,
2012-05-08, 01:36:04,VALID,998.966,VALID,0,VALID,94.119,VALID,0,VALID,23.6622,VALID,51,VALID,0,
2012-05-08, 01:37:04,VALID,998.937,VALID,0,VALID,94.2411,VALID,0,VALID,23.6622,VALID,51,VALID,0.657812,
2012-05-08, 01:38:04,VALID,998.925,VALID,0,VALID,94.2334,VALID,0,VALID,23.6214,VALID,33,VALID,0.964844,
2012-05-08, 01:39:04,VALID,998.95,VALID,0,VALID,94.1724,VALID,0,VALID,23.5841,VALID,23,VALID,1.0168,
2012-05-08, 01:40:04,VALID,998.909,VALID,0,VALID,94.1266,VALID,0,VALID,23.5433,VALID,23,VALID,1.17305,
2012-05-08, 01:41:04,VALID,998.915,VALID,0,VALID,94.0808,VALID,0,VALID,23.5061,VALID,23,VALID,1.24492,
2012-05-08, 01:42:04,VALID,998.914,VALID,0,VALID,94.0503,VALID,0,VALID,23.4475,VALID,23,VALID,1.21484,
2012-05-08, 01:43:04,VALID,998.873,VALID,0,VALID,94.0503,VALID,0,VALID,23.4085,VALID,33,VALID,1.14141,
2012-05-08, 01:44:04,VALID,998.87,VALID,0,VALID,94.1648,VALID,0,VALID,23.3695,VALID,30,VALID,1.18242,
2012-05-08, 01:45:04,VALID,998.849,VALID,0,VALID,94.3097,VALID,0,VALID,23.3695,VALID,28,VALID,1.16172,
2012-05-08, 01:46:04,VALID,998.853,VALID,0,VALID,94.4165,VALID,0,VALID,23.3695,VALID,26,VALID,0.701953,
2012-05-08, 01:47:04,VALID,998.838,VALID,0,VALID,94.4623,VALID,0,VALID,23.35,VALID,26,VALID,0.819922,
2012-05-08, 01:48:04,VALID,998.811,VALID,0,VALID,94.47,VALID,0,VALID,23.3092,VALID,26,VALID,0.641406,
2012-05-08, 01:49:04,VALID,998.815,VALID,0,VALID,94.4852,VALID,0,VALID,23.35,VALID,26,VALID,0.758594,
2012-05-08, 01:50:04,VALID,998.775,VALID,0,VALID,94.5234,VALID,0,VALID,23.3092,VALID,26,VALID,0.613672,
2012-05-08, 01:51:04,VALID,998.752,VALID,0,VALID,94.5615,VALID,0,VALID,23.3305,VALID,26,VALID,0.528125,
2012-05-08, 01:52:04,VALID,998.778,VALID,0,VALID,94.5768,VALID,0,VALID,23.311,VALID,26,VALID,0.355859,
2012-05-08, 01:53:04,VALID,998.767,VALID,0,VALID,94.592,VALID,0,VALID,23.311,VALID,26,VALID,0.234375,
2012-05-08, 01:54:04,VALID,998.707,VALID,0,VALID,94.6073,VALID,0,VALID,23.311,VALID,26,VALID,0.0078125,
2012-05-08, 01:55:04,VALID,998.72,VALID,0,VALID,94.5615,VALID,0,VALID,23.2915,VALID,26,VALID,0,
2012-05-08, 01:56:04,VALID,998.705,VALID,0,VALID,94.5462,VALID,0,VALID,23.2719,VALID,26,VALID,0,
2012-05-08, 01:57:04,VALID,998.667,VALID,0,VALID,94.5386,VALID,0,VALID,23.2719,VALID,26,VALID,0,
2012-05-08, 01:58:04,VALID,998.676,VALID,0,VALID,94.5386,VALID,0,VALID,23.2719,VALID,26,VALID,0,
2012-05-08, 01:59:04,VALID,998.654,VALID,0,VALID,94.5768,VALID,0,VALID,23.2915,VALID,26,VALID,0.307422,
2012-05-08, 02:00:04,VALID,998.647,VALID,0,VALID,94.6531,VALID,0,VALID,23.2702,VALID,26,VALID,0.386719,
2012-05-08, 02:01:04,VALID,998.637,VALID,0,VALID,94.7294,VALID,0,VALID,23.311,VALID,26,VALID,0.308203,
2012-05-08, 02:02:04,VALID,998.619,VALID,0,VALID,94.7675,VALID,0,VALID,23.3092,VALID,26,VALID,0.405078,
2012-05-08, 02:03:04,VALID,998.612,VALID,0,VALID,94.8438,VALID,0,VALID,23.3695,VALID,74,VALID,0.775781,
2012-05-08, 02:04:04,VALID,998.581,VALID,0,VALID,94.9277,VALID,0,VALID,23.428,VALID,72,VALID,0.771875,
2012-05-08, 02:05:04,VALID,998.536,VALID,0,VALID,94.9735,VALID,0,VALID,23.4671,VALID,74,VALID,0.917578,
2012-05-08, 02:06:04,VALID,998.516,VALID,0,VALID,94.9888,VALID,0,VALID,23.5061,VALID,73,VALID,0.832422,
2012-05-08, 02:07:04,VALID,998.514,VALID,0,VALID,94.9888,VALID,0,VALID,23.5433,VALID,73,VALID,0.510547,
2012-05-08, 02:08:04,VALID,998.484,VALID,0,VALID,94.9659,VALID,0,VALID,23.5841,VALID,73,VALID,0.438281,
2012-05-08, 02:09:04,VALID,998.462,VALID,0,VALID,94.8667,VALID,0,VALID,23.5646,VALID,73,VALID,0.583594,
2012-05-08, 02:10:04,VALID,998.483,VALID,0,VALID,94.7523,VALID,0,VALID,23.5451,VALID,72,VALID,0.5875,
2012-05-08, 02:11:04,VALID,998.449,VALID,0,VALID,94.6302,VALID,0,VALID,23.5061,VALID,72,VALID,0.627734,
2012-05-08, 02:12:04,VALID,998.444,VALID,0,VALID,94.5615,VALID,0,VALID,23.5061,VALID,72,VALID,0.58125,
2012-05-08, 02:13:04,VALID,998.458,VALID,0,VALID,94.5615,VALID,0,VALID,23.4653,VALID,72,VALID,0.611328,
2012-05-08, 02:14:04,VALID,998.442,VALID,0,VALID,94.4852,VALID,0,VALID,23.4671,VALID,72,VALID,0.519922,
2012-05-08, 02:15:04,VALID,998.465,VALID,0,VALID,94.4776,VALID,0,VALID,23.4458,VALID,72,VALID,0.585938,
2012-05-08, 02:16:04,VALID,998.463,VALID,0,VALID,94.5234,VALID,0,VALID,23.4475,VALID,72,VALID,0.389062,
2012-05-08, 02:17:04,VALID,998.458,VALID,0,VALID,94.5539,VALID,0,VALID,23.4475,VALID,72,VALID,0.338281,
2012-05-08, 02:18:04,VALID,998.467,VALID,0,VALID,94.5386,VALID,0,VALID,23.4475,VALID,72,VALID,0.438672,
2012-05-08, 02:19:04,VALID,998.427,VALID,0,VALID,94.5157,VALID,0,VALID,23.4085,VALID,72,VALID,0.391406,
2012-05-08, 02:20:04,VALID,998.453,VALID,0,VALID,94.5081,VALID,0,VALID,23.389,VALID,72,VALID,0.508203,
2012-05-08, 02:21:04,VALID,998.419,VALID,0,VALID,94.5081,VALID,0,VALID,23.3677,VALID,72,VALID,0.596875,
2012-05-08, 02:22:04,VALID,998.415,VALID,0,VALID,94.5386,VALID,0,VALID,23.3482,VALID,72,VALID,0.667578,
2012-05-08, 02:23:04,VALID,998.424,VALID,0,VALID,94.592,VALID,0,VALID,23.389,VALID,72,VALID,0.670703,
2012-05-08, 02:24:04,VALID,998.413,VALID,0,VALID,94.6531,VALID,0,VALID,23.3677,VALID,72,VALID,0.744141,
2012-05-08, 02:25:04,VALID,998.411,VALID,0,VALID,94.676,VALID,0,VALID,23.3677,VALID,72,VALID,0.75,
2012-05-08, 02:26:04,VALID,998.408,VALID,0,VALID,94.6988,VALID,0,VALID,23.389,VALID,72,VALID,0.560938,
2012-05-08, 02:27:04,VALID,998.399,VALID,0,VALID,94.6531,VALID,0,VALID,23.3695,VALID,72,VALID,0.429688,
2012-05-08, 02:28:04,VALID,998.441,VALID,0,VALID,94.6149,VALID,0,VALID,23.3695,VALID,72,VALID,0.394531,
2012-05-08, 02:29:04,VALID,998.439,VALID,0,VALID,94.5997,VALID,0,VALID,23.3695,VALID,72,VALID,0.525391,
2012-05-08, 02:30:04,VALID,998.399,VALID,0,VALID,94.6378,VALID,0,VALID,23.3287,VALID,72,VALID,0.510156,
2012-05-08, 02:31:04,VALID,998.387,VALID,0,VALID,94.6836,VALID,0,VALID,23.3482,VALID,72,VALID,0.571484,
2012-05-08, 02:32:04,VALID,998.371,VALID,0,VALID,94.7446,VALID,0,VALID,23.4085,VALID,72,VALID,0.535156,
2012-05-08, 02:33:04,VALID,998.383,VALID,0,VALID,94.7523,VALID,0,VALID,23.389,VALID,72,VALID,0.603125,
2012-05-08, 02:34:04,VALID,998.358,VALID,0,VALID,94.7141,VALID,0,VALID,23.4085,VALID,72,VALID,0.619141,
2012-05-08, 02:35:04,VALID,998.346,VALID,0,VALID,94.6912,VALID,0,VALID,23.428,VALID,72,VALID,0.698438,
2012-05-08, 02:36:04,VALID,998.327,VALID,0,VALID,94.6378,VALID,0,VALID,23.4085,VALID,72,VALID,0.696875,
2012-05-08, 02:37:04,VALID,998.358,VALID,0,VALID,94.6378,VALID,0,VALID,23.428,VALID,72,VALID,0.633203,
2012-05-08, 02:38:04,VALID,998.354,VALID,0,VALID,94.6226,VALID,0,VALID,23.428,VALID,72,VALID,0.528516,
2012-05-08, 02:39:04,VALID,998.352,VALID,0,VALID,94.592,VALID,0,VALID,23.389,VALID,72,VALID,0.276563,
2012-05-08, 02:40:04,VALID,998.339,VALID,0,VALID,94.5615,VALID,0,VALID,23.3872,VALID,72,VALID,0.266406,
2012-05-08, 02:41:04,VALID,998.343,VALID,0,VALID,94.5539,VALID,0,VALID,23.3695,VALID,72,VALID,0.021875,
2012-05-08, 02:42:04,VALID,998.357,VALID,0,VALID,94.531,VALID,0,VALID,23.35,VALID,72,VALID,0,
2012-05-08, 02:43:04,VALID,998.326,VALID,0,VALID,94.4547,VALID,0,VALID,23.3092,VALID,72,VALID,0,
2012-05-08, 02:44:04,VALID,998.337,VALID,0,VALID,94.3708,VALID,0,VALID,23.311,VALID,72,VALID,0,
2012-05-08, 02:45:04,VALID,998.316,VALID,0,VALID,94.386,VALID,0,VALID,23.2915,VALID,72,VALID,0,
2012-05-08, 02:46:04,VALID,998.296,VALID,0,VALID,94.4471,VALID,0,VALID,23.2915,VALID,72,VALID,0,
2012-05-08, 02:47:04,VALID,998.293,VALID,0,VALID,94.5234,VALID,0,VALID,23.2915,VALID,72,VALID,0,
2012-05-08, 02:48:04,VALID,998.276,VALID,0,VALID,94.5768,VALID,0,VALID,23.2915,VALID,72,VALID,0,
2012-05-08, 02:49:04,VALID,998.288,VALID,0,VALID,94.6378,VALID,0,VALID,23.311,VALID,72,VALID,0.4,
2012-05-08, 02:50:04,VALID,998.272,VALID,0,VALID,94.7065,VALID,0,VALID,23.311,VALID,72,VALID,0.474609,
2012-05-08, 02:51:04,VALID,998.269,VALID,0,VALID,94.737,VALID,0,VALID,23.3305,VALID,72,VALID,0.561328,
2012-05-08, 02:52:04,VALID,998.234,VALID,0,VALID,94.7523,VALID,0,VALID,23.35,VALID,72,VALID,0.508984,
2012-05-08, 02:53:04,VALID,998.244,VALID,0,VALID,94.7523,VALID,0,VALID,23.3092,VALID,72,VALID,0.331641,
2012-05-08, 02:54:04,VALID,998.254,VALID,0,VALID,94.7675,VALID,0,VALID,23.311,VALID,72,VALID,0.174609,
2012-05-08, 02:55:04,VALID,998.233,VALID,0,VALID,94.7675,VALID,0,VALID,23.311,VALID,72,VALID,0,
2012-05-08, 02:56:04,VALID,998.24,VALID,0,VALID,94.737,VALID,0,VALID,23.2897,VALID,72,VALID,0,
2012-05-08, 02:57:04,VALID,998.222,VALID,0,VALID,94.7065,VALID,0,VALID,23.2915,VALID,72,VALID,0,
2012-05-08, 02:58:04,VALID,998.271,VALID,0,VALID,94.6607,VALID,0,VALID,23.2719,VALID,72,VALID,0,
2012-05-08, 02:59:04,VALID,998.251,VALID,0,VALID,94.6378,VALID,0,VALID,23.2312,VALID,72,VALID,0,
2012-05-08, 03:00:04,VALID,998.23,VALID,0,VALID,94.6226,VALID,0,VALID,23.2524,VALID,72,VALID,0,
2012-05-08, 03:01:04,VALID,998.248,VALID,0,VALID,94.6302,VALID,0,VALID,23.2117,VALID,72,VALID,0,
2012-05-08, 03:02:04,VALID,998.271,VALID,0,VALID,94.676,VALID,0,VALID,23.2329,VALID,72,VALID,0,
2012-05-08, 03:03:04,VALID,998.259,VALID,0,VALID,94.6912,VALID,0,VALID,23.2312,VALID,72,VALID,0,
2012-05-08, 03:04:04,VALID,998.255,VALID,0,VALID,94.7675,VALID,0,VALID,23.2719,VALID,72,VALID,0,
2012-05-08, 03:05:04,VALID,998.232,VALID,0,VALID,94.8362,VALID,0,VALID,23.311,VALID,72,VALID,0,
2012-05-08, 03:06:04,VALID,998.236,VALID,0,VALID,94.882,VALID,0,VALID,23.3305,VALID,72,VALID,0,
2012-05-08, 03:07:04,VALID,998.225,VALID,0,VALID,94.8743,VALID,0,VALID,23.311,VALID,72,VALID,0.292188,
2012-05-08, 03:08:04,VALID,998.246,VALID,0,VALID,94.8743,VALID,0,VALID,23.311,VALID,72,VALID,0.353906,
2012-05-08, 03:09:04,VALID,998.256,VALID,0,VALID,94.8591,VALID,0,VALID,23.311,VALID,72,VALID,0.286719,
2012-05-08, 03:10:04,VALID,998.247,VALID,0,VALID,94.8743,VALID,0,VALID,23.311,VALID,72,VALID,0.256641,
2012-05-08, 03:11:04,VALID,998.242,VALID,0,VALID,94.8896,VALID,0,VALID,23.3305,VALID,72,VALID,0.25625,
2012-05-08, 03:12:04,VALID,998.245,VALID,0,VALID,94.882,VALID,0,VALID,23.311,VALID,72,VALID,0.313672,
2012-05-08, 03:13:04,VALID,998.245,VALID,0,VALID,94.8667,VALID,0,VALID,23.311,VALID,72,VALID,0.313672,
2012-05-08, 03:14:04,VALID,998.246,VALID,0,VALID,94.8438,VALID,0,VALID,23.2915,VALID,72,VALID,0.297656,
2012-05-08, 03:15:04,VALID,998.22,VALID,0,VALID,94.8514,VALID,0,VALID,23.2915,VALID,72,VALID,0.282422,
2012-05-08, 03:16:04,VALID,998.247,VALID,0,VALID,94.8743,VALID,0,VALID,23.2915,VALID,72,VALID,0.284375,
2012-05-08, 03:17:04,VALID,998.224,VALID,0,VALID,94.8896,VALID,0,VALID,23.2702,VALID,72,VALID,0.000390625,
2012-05-08, 03:18:04,VALID,998.204,VALID,0,VALID,94.8972,VALID,0,VALID,23.2915,VALID,72,VALID,0,
2012-05-08, 03:19:04,VALID,998.215,VALID,0,VALID,94.9048,VALID,0,VALID,23.311,VALID,72,VALID,0,
2012-05-08, 03:20:04,VALID,998.186,VALID,0,VALID,94.8972,VALID,0,VALID,23.311,VALID,72,VALID,0,
2012-05-08, 03:21:04,VALID,998.194,VALID,0,VALID,94.9125,VALID,0,VALID,23.2897,VALID,72,VALID,0,
2012-05-08, 03:22:04,VALID,998.21,VALID,0,VALID,94.8896,VALID,0,VALID,23.2702,VALID,72,VALID,0,
2012-05-08, 03:23:04,VALID,998.243,VALID,0,VALID,94.8591,VALID,0,VALID,23.2915,VALID,72,VALID,0,
2012-05-08, 03:24:04,VALID,998.242,VALID,0,VALID,94.882,VALID,0,VALID,23.2915,VALID,72,VALID,0,
2012-05-08, 03:25:04,VALID,998.25,VALID,0,VALID,94.882,VALID,0,VALID,23.2702,VALID,72,VALID,0,
2012-05-08, 03:26:04,VALID,998.28,VALID,0,VALID,94.9048,VALID,0,VALID,23.2915,VALID,72,VALID,0,
2012-05-08, 03:27:04,VALID,998.281,VALID,0,VALID,94.9048,VALID,0,VALID,23.311,VALID,72,VALID,0,
2012-05-08, 03:28:04,VALID,998.3,VALID,0,VALID,94.9659,VALID,0,VALID,23.3092,VALID,72,VALID,0,
2012-05-08, 03:29:04,VALID,998.299,VALID,0,VALID,94.9735,VALID,0,VALID,23.35,VALID,72,VALID,0,
2012-05-08, 03:30:04,VALID,998.274,VALID,0,VALID,94.9964,VALID,0,VALID,23.35,VALID,72,VALID,0,
2012-05-08, 03:31:04,VALID,998.294,VALID,0,VALID,94.9964,VALID,0,VALID,23.35,VALID,72,VALID,0,
2012-05-08, 03:32:04,VALID,998.295,VALID,0,VALID,94.9811,VALID,0,VALID,23.35,VALID,72,VALID,0,
2012-05-08, 03:33:04,VALID,998.31,VALID,0,VALID,95.0117,VALID,0,VALID,23.35,VALID,72,VALID,0.473047,
2012-05-08, 03:34:04,VALID,998.31,VALID,0,VALID,94.9964,VALID,0,VALID,23.35,VALID,72,VALID,0.358203,
2012-05-08, 03:35:04,VALID,998.313,VALID,0,VALID,94.9888,VALID,0,VALID,23.311,VALID,72,VALID,0.350781,
2012-05-08, 03:36:04,VALID,998.323,VALID,0,VALID,94.9735,VALID,0,VALID,23.311,VALID,72,VALID,0.110937,
2012-05-08, 03:37:04,VALID,998.33,VALID,0,VALID,94.9659,VALID,0,VALID,23.3305,VALID,72,VALID,0,
2012-05-08, 03:38:04,VALID,998.36,VALID,0,VALID,94.9659,VALID,0,VALID,23.3305,VALID,72,VALID,0,
2012-05-08, 03:39:04,VALID,998.337,VALID,0,VALID,94.9735,VALID,0,VALID,23.3305,VALID,72,VALID,0,
2012-05-08, 03:40:04,VALID,998.358,VALID,0,VALID,94.9964,VALID,0,VALID,23.3305,VALID,72,VALID,0,
2012-05-08, 03:41:04,VALID,998.364,VALID,0,VALID,95.0117,VALID,0,VALID,23.35,VALID,72,VALID,0,
2012-05-08, 03:42:04,VALID,998.397,VALID,0,VALID,95.004,VALID,0,VALID,23.35,VALID,72,VALID,0,
2012-05-08, 03:43:04,VALID,998.397,VALID,0,VALID,95.0117,VALID,0,VALID,23.3695,VALID,72,VALID,0,
2012-05-08, 03:44:04,VALID,998.395,VALID,0,VALID,95.0117,VALID,0,VALID,23.3695,VALID,72,VALID,0,
2012-05-08, 03:45:04,VALID,998.401,VALID,0,VALID,95.0269,VALID,0,VALID,23.389,VALID,72,VALID,0.208984,
2012-05-08, 03:46:04,VALID,998.385,VALID,0,VALID,95.0269,VALID,0,VALID,23.389,VALID,72,VALID,0.322266,
2012-05-08, 03:47:04,VALID,998.407,VALID,0,VALID,95.0193,VALID,0,VALID,23.389,VALID,72,VALID,0.360938,
2012-05-08, 03:48:04,VALID,998.363,VALID,0,VALID,95.0345,VALID,0,VALID,23.428,VALID,72,VALID,0.358594,
2012-05-08, 03:49:04,VALID,998.38,VALID,0,VALID,95.0345,VALID,0,VALID,23.428,VALID,72,VALID,0.497266,
2012-05-08, 03:50:04,VALID,998.348,VALID,0,VALID,95.0422,VALID,0,VALID,23.4263,VALID,72,VALID,0.561328,
2012-05-08, 03:51:04,VALID,998.378,VALID,0,VALID,95.0422,VALID,0,VALID,23.4671,VALID,72,VALID,0.183594,